Regional Weather Roundup
Issued by NWS

Home | Current Version | Previous Version | Graphics & Text | Print | Product List | Glossary On
Versions: 1 2 3 4 5 6 7 8 9 10 11 12 13 14 15 16 17 18 19 20 21 22 23 24 25 26 27 28 29 30 31 32 33 34 35 36 37 38 39 40 41 42 43 44 45 46 47 48 49 50
000
ASUS43 KLOT 310203
RWRIL

ILLINOIS REGIONAL WEATHER ROUNDUP
NATIONAL WEATHER SERVICE CHICAGO/ROMEOVILLE IL
900 PM CDT SAT JUL 30 2016

NOTE: "FAIR" INDICATES FEW OR NO CLOUDS BELOW 12,000 FEET WITH NO
SIGNIFICANT WEATHER AND/OR OBSTRUCTIONS TO VISIBILITY.

* THESE STATIONS ARE NOT UNDER NWS QUALITY CONTROL. THEY ALSO MAY NOT
  REPORT WEATHER SUCH AS PRECIPITATION OR FOG.

ILZ001-002-007-009-015-016-024-310300-
NORTHWEST ILLINOIS

CITY           SKY/WX    TMP DP  RH WIND       PRES   REMARKS
MOLINE         MOCLDY    73  68  84 CALM      29.96R
STERLING*      CLEAR     69  66  90 NE5       29.98R
SAVANNA*       CLEAR     71  64  79 CALM      29.98R
$$

ILZ003-004-008-010-011-017-018-310300-
NORTH CENTRAL ILLINOIS

CITY           SKY/WX    TMP DP  RH WIND       PRES   REMARKS
ROCKFORD       PTCLDY    71  61  70 E9        30.01R
FREEPORT*      CLEAR     68  64  86 CALM      30.01R
ROCHELLE*      CLEAR     70  64  83 E6        30.00R
DE KALB*       CLEAR     68  64  85 E8        30.01R
$$

ILZ005-006-012>014-019>023-310300-
NORTHEAST ILLINOIS

CITY           SKY/WX    TMP DP  RH WIND       PRES   REMARKS
CHICAGO-OHARE  MOCLDY    71  64  78 NE8       29.99S
CHICAGO-MIDWAY MOCLDY    73  64  73 N13       29.98S
AURORA         CLEAR     70  64  81 NE7       30.00R
LANSING*       MOCLDY    71  64  80 N5        29.98S
WAUKEGAN       CLOUDY    70  63  78 N7        30.00S
DUPAGE AIRPORT MOCLDY    70  62  76 NE10      29.99S
KANKAKEE*      CLEAR     68  65  90 NE7       29.98R
WHEELING       CLEAR     70  64  81 N5        30.01R
MORRIS*        CLEAR     69  65  86 NE3       29.97R
NORTHERLY ISL    N/A     72  65  78 NE8         N/A
$$

LMZ740>746-310300-
SOUTHERN LAKE MICHIGAN

STATION/POSITION SKY/WX   TEMP    WIND        PRES    VSBY  WAVE
                          AIR SEA DIR/SP/G                  HT/PER
                          (F)     (DEG/KT/KT) (MB)    (MI)  (FT/S)
SOUTHERN BUOY              72 74   30/ 12/ 12 1014.9          2/ 3
WILMETTE HARBOR            71 71   50/ 12/ 14   N/A           2/ 3
HARRISON CRIB              72      20/ 14/ 15   N/A
BURNHAM HARBOR             71      30/  9/ 11   N/A
CALUMET HARBOR                    360/  6/  9 1014.9
BURNS HARBOR               70      30/ 11/ 14 1015.6S
MICHIGAN CITY              70      10/ 15/ 15   N/A
MICHIGAN CITY 6N           72 73   30/ 14/ 17   N/A           3/ 4
ST. JOSEPH                 69 68   10/ 12/ 14 1014.8R         3/ 4
$$

ILZ025>027-034>036-040-047-049-050-058-095>099-310300-
WEST-CENTRAL ILLINOIS

CITY           SKY/WX    TMP DP  RH WIND       PRES   REMARKS
QUINCY         CLEAR     76  70  82 CALM      29.96S
GALESBURG*     PTCLDY    71  68  90 CALM      29.97R
MACOMB*        CLEAR     71  68  88 CALM      29.99R
JACKSONVILLE*  CLEAR     73  69  88 CALM      29.96R
PITTSFIELD*    CLEAR     73  68  84 CALM      29.98R
$$

ILZ028>032-037-038-041>044-048-051>054-059>061-310300-
CENTRAL ILLINOIS

CITY           SKY/WX    TMP DP  RH WIND       PRES   REMARKS
PONTIAC        CLEAR     71  70  99 E3        29.98R
BLOOMINGTON    CLEAR     71  68  90 NE7       29.98R
DECATUR        CLEAR     77  66  68 W5        29.96R
PEORIA         CLEAR     73  69  87 CALM      29.96R
LACON*         CLEAR     70  67  92 CALM      29.96R
LINCOLN*       CLOUDY    75  71  86 CALM      29.96R
SPRINGFIELD    CLEAR     73  70  90 CALM      29.96S
TAYLORVILLE    MOCLDY    70  68  93 MISG      29.97R
$$

ILZ033-039-045-046-055>057-062-063-310300-
EAST-CENTRAL ILLINOIS

CITY           SKY/WX    TMP DP  RH WIND       PRES   REMARKS
CHAMPAIGN      CLOUDY    72  69  90 CALM      29.96R
MATTOON        CLEAR     73  67  81 SW3       29.95S
PARIS*         CLEAR     69  69  98 CALM      29.97R
$$

ILZ079-100>102-310300-
SOUTHWEST ILLINOIS

CITY           SKY/WX    TMP DP  RH WIND       PRES   REMARKS
ALTON          CLEAR     73  66  78 CALM      29.97R
BELLEVILLE     CLEAR     76  73  89 CALM      29.95R
CAHOKIA*       CLEAR     75  68  78 E3        29.95R
SPARTA*        CLEAR     76  69  80 CALM      29.97S
$$

ILZ064>066-069>071-074>076-080>082-084>086-088>090-092>094-310300-
SOUTH-CENTRAL ILLINOIS

CITY           SKY/WX    TMP DP  RH WIND       PRES   REMARKS
CARBONDALE     CLEAR     76  72  87 CALM      29.96R
CAIRO*         MOCLDY    76  73  91 NE3       29.94F
EFFINGHAM*     CLEAR     72  71  98 CALM      29.98R
MARION         CLEAR     75  72  88 S3        29.97S
MT. VERNON     CLEAR     72  64  78 CALM      29.97R
CENTRALIA*     CLEAR     73  71  95 CALM      29.96R
SALEM*         PTCLDY    74  69  85 CALM      29.96S
METROPOLIS*    MOCLDY    76  74  95 CALM      29.97S
$$

ILZ067-068-072-073-078-083-087-091-310300-
SOUTHEAST ILLINOIS

CITY           SKY/WX    TMP DP  RH WIND       PRES   REMARKS
LAWRENCEVILLE  CLEAR     76  69  79 NW3       29.96S
FLORA*         CLEAR     74  70  87 CALM      29.96S
FAIRFIELD*     CLEAR     73  71  92 CALM      29.95S
HARRISBURG*    CLEAR     76  74  96 CALM      29.96S
ROBINSON*      PTCLDY    72  68  89 CALM      29.96F
CARMI*         CLEAR     74  73  96 CALM      29.95S
$$

ABBREVIATIONS USED IN REMARKS
   TC - TEMPERATURE IN CELSIUS
  WCI - WIND CHILL INDEX
   HX - HEAT INDEX
  VSB - VISIBILITY
$$





USA.gov is the U.S. government's official web portal to all federal, state and local government web resources and services.